This is the latest recevied weather packets stored in our database for station/object IW2NIA-3. If no packets are shown the sender has not sent any weather packets the latest 1 day(s).
| Time | Temp. | Humidity | Pressure | Rain* | Wind** | Luminosity | Snow |
|---|---|---|---|---|---|---|---|
| 1777988925 | 13.33° C | 93% | 1012.2 hPa | 0 mm | 2.24 m/s, 114° | - | - |
| 1777988015 | 13.33° C | 94% | 1012.3 hPa | 0 mm | 0.89 m/s, 104° | - | - |
| 1777987112 | 13.33° C | 93% | 1012.4 hPa | 0 mm | 0.89 m/s, 115° | - | - |
| 1777986216 | 13.33° C | 93% | 1012.4 hPa | 0 mm | 1.79 m/s, 109° | - | - |
| 1777985328 | 12.78° C | 93% | 1012.4 hPa | 0 mm | 0.89 m/s, 113° | - | - |
| 1777984423 | 12.78° C | 93% | 1012.4 hPa | 0.25 mm | 0.89 m/s, 117° | - | - |
| 1777983518 | 12.78° C | 93% | 1012.4 hPa | 0.51 mm | 0 m/s | - | - |
| 1777982617 | 12.78° C | 93% | 1012.4 hPa | 0.76 mm | 0 m/s | - | - |
| 1777981726 | 12.78° C | 93% | 1012.5 hPa | 1.02 mm | 0.89 m/s, 63° | - | - |
| 1777980821 | 12.78° C | 93% | 1012.6 hPa | 1.02 mm | 0 m/s | - | - |
| 1777979915 | 12.78° C | 93% | 1012.7 hPa | 1.02 mm | 0.45 m/s, 28° | - | - |
| 1777979015 | 12.78° C | 93% | 1012.8 hPa | 1.02 mm | 0 m/s | - | - |
| 1777978125 | 12.78° C | 93% | 1012.8 hPa | 1.27 mm | 0.89 m/s, 56° | - | - |
| 1777977216 | 12.78° C | 93% | 1012.8 hPa | 1.27 mm | 1.34 m/s, 66° | - | - |
| 1777976325 | 12.78° C | 92% | 1012.7 hPa | 1.52 mm | 0.89 m/s, 68° | - | - |
| 1777975422 | 12.78° C | 92% | 1012.8 hPa | 1.27 mm | 0 m/s | - | - |
| 1777974519 | 13.33° C | 92% | 1012.8 hPa | 1.52 mm | 0 m/s | - | - |
| 1777973611 | 12.78° C | 92% | 1012.8 hPa | 1.27 mm | 0.89 m/s, 96° | - | - |
| 1777972710 | 12.78° C | 92% | 1012.6 hPa | 1.02 mm | 1.34 m/s, 44° | - | - |
| 1777971823 | 12.78° C | 92% | 1012.7 hPa | 0.76 mm | 1.34 m/s, 102° | - | - |
| 1777970915 | 12.78° C | 92% | 1012.6 hPa | 0 mm | 1.34 m/s, 101° | - | - |
| 1777970009 | 12.78° C | 92% | 1012.4 hPa | 0 mm | 0.89 m/s, 129° | - | - |
| 1777969106 | 12.78° C | 93% | 1012.3 hPa | 0.25 mm | 1.79 m/s, 70° | - | - |
* Rain latest hour (hover to see other rain measurements)
** Current wind speed in m/s (hover to see current wind gust speed)